Torna al catalogo

STARLINK-32425

AttivoComunicazioniVLEO
NORAD 61216·PAYLOAD·🇺🇸 United States

Lanciato Sep 20, 2024 da Vandenberg Space Force Base

Loading…

Prossimi Passaggi (prossime 24 ore)

TLE

AggiornatoSource: CelesTrak SupGP

Epoca: Sep 15, 2026, 02:44 UTC

1 61216C 24171S   26258.11437500  .00001656  00000+0  53245-4 0  2583
2 61216  53.1581 161.7061 0001509  80.4958 246.9966 15.31700088    18

Traccia STARLINK-32425 in tempo reale con AllMySat

Download on the App Store